| time (UTC) | temp C | wind direction | speed KPH | gust KPH | rain 1hr cm | rain 24hr cm | rain mn cm | humidity % | barometer mb |
| 20260906120807 | 21 | 349 | 3.2 | 3.2 | 0.00 | 0.00 | 0.00 | 99 | 1013.1 |
| 20260906120257 | 21 | 315 | 0.0 | 0.0 | 0.00 | 0.00 | 0.00 | 99 | 1012.9 |
| 20260906115753 | 21 | 332 | 0.0 | 1.6 | 0.00 | 0.00 | 0.00 | 99 | 1013.0 |
| 20260906115248 | 21 | 331 | 0.0 | 0.0 | 0.00 | 0.00 | 0.00 | 99 | 1012.8 |
| 20260906114747 | 21 | 324 | 0.0 | 0.0 | 0.00 | 0.00 | 0.00 | 99 | 1012.6 |
| 20260906114243 | 21 | 334 | 0.0 | 0.0 | 0.00 | 0.00 | 0.00 | 99 | 1012.6 |
| 20260906113738 | 21 | 327 | 0.0 | 0.0 | 0.00 | 0.00 | 0.00 | 99 | 1012.5 |
| 20260906113237 | 21 | 321 | 3.2 | 3.2 | 0.00 | 0.00 | 0.00 | 99 | 1012.5 |
| 20260906112737 | 21 | 342 | 0.0 | 0.0 | 0.00 | 0.00 | 0.00 | 99 | 1012.3 |
| 20260906112234 | 21 | 334 | 3.2 | 4.8 | 0.00 | 0.00 | 0.00 | 99 | 1012.4 |
| 20260906111733 | 21 | 346 | 0.0 | 0.0 | 0.00 | 0.00 | 0.00 | 99 | 1012.2 |
| 20260906111227 | 21 | 345 | 0.0 | 1.6 | 0.00 | 0.00 | 0.00 | 99 | 1012.4 |
| 20260906110722 | 21 | 346 | 1.6 | 1.6 | 0.00 | 0.00 | 0.00 | 99 | 1012.2 |
| 20260906110219 | 21 | 337 | 0.0 | 0.0 | 0.00 | 0.00 | 0.00 | 99 | 1012.0 |
| 20260906105717 | 21 | 326 | 0.0 | 0.0 | 0.00 | 0.00 | 0.00 | 99 | 1011.8 |
| 20260906105214 | 21 | 324 | 0.0 | 1.6 | 0.00 | 0.00 | 0.00 | 99 | 1011.7 |
| 20260906104713 | 21 | 356 | 1.6 | 1.6 | 0.00 | 0.00 | 0.00 | 99 | 1011.7 |
| 20260906104212 | 21 | 335 | 1.6 | 1.6 | 0.00 | 0.00 | 0.00 | 99 | 1011.6 |
| 20260906103710 | 21 | 342 | 3.2 | 3.2 | 0.00 | 0.00 | 0.00 | 99 | 1011.6 |
| 20260906103205 | 21 | 326 | 0.0 | 0.0 | 0.00 | 0.00 | 0.00 | 99 | 1011.6 |
| 20260906102701 | 21 | 3 | 1.6 | 1.6 | 0.00 | 0.00 | 0.00 | 99 | 1011.4 |
| 20260906102200 | 21 | 333 | 0.0 | 0.0 | 0.00 | 0.00 | 0.00 | 99 | 1011.5 |
| 20260906101654 | 21 | 339 | 3.2 | 3.2 | 0.00 | 0.00 | 0.00 | 99 | 1011.4 |
| 20260906101149 | 21 | 345 | 3.2 | 3.2 | 0.00 | 0.00 | 0.00 | 99 | 1011.2 |
| 20260906100644 | 21 | 340 | 3.2 | 3.2 | 0.00 | 0.00 | 0.00 | 99 | 1011.4 |
| 20260906100139 | 21 | 356 | 4.8 | 4.8 | 0.00 | 0.00 | 0.00 | 99 | 1011.4 |
| 20260906095634 | 21 | 352 | 0.0 | 1.6 | 0.00 | 0.00 | 0.00 | 99 | 1011.0 |
| 20260906095130 | 21 | 327 | 0.0 | 0.0 | 0.00 | 0.00 | 0.00 | 99 | 1011.2 |
| 20260906094628 | 21 | 329 | 0.0 | 0.0 | 0.00 | 0.00 | 0.00 | 99 | 1011.2 |
| 20260906094125 | 21 | 343 | 1.6 | 1.6 | 0.00 | 0.00 | 0.00 | 99 | 1011.4 |
| 20260906093620 | 21 | 326 | 0.0 | 0.0 | 0.00 | 0.00 | 0.00 | 99 | 1011.3 |
| 20260906093114 | 21 | 320 | 0.0 | 0.0 | 0.00 | 0.00 | 0.00 | 99 | 1011.2 |
| 20260906092609 | 21 | 320 | 0.0 | 0.0 | 0.00 | 0.00 | 0.00 | 99 | 1011.3 |
| 20260906092105 | 21 | 316 | 0.0 | 0.0 | 0.00 | 0.00 | 0.00 | 99 | 1011.1 |
| 20260906091600 | 21 | 333 | 0.0 | 0.0 | 0.00 | 0.00 | 0.00 | 99 | 1011.0 |
| 20260906091056 | 21 | 332 | 0.0 | 0.0 | 0.00 | 0.00 | 0.00 | 99 | 1011.4 |
| 20260906090551 | 21 | 311 | 0.0 | 0.0 | 0.00 | 0.00 | 0.00 | 99 | 1011.4 |
| 20260906090046 | 21 | 342 | 3.2 | 3.2 | 0.00 | 0.00 | 0.00 | 99 | 1011.2 |
| 20260906085545 | 21 | 323 | 1.6 | 3.2 | 0.00 | 0.00 | 0.00 | 99 | 1011.5 |
| 20260906085044 | 21 | 342 | 1.6 | 3.2 | 0.00 | 0.00 | 0.00 | 99 | 1011.1 |
| 20260906084539 | 21 | 340 | 3.2 | 3.2 | 0.00 | 0.00 | 0.00 | 99 | 1011.4 |
| 20260906084038 | 21 | 328 | 0.0 | 0.0 | 0.00 | 0.00 | 0.00 | 99 | 1011.3 |
| 20260906083534 | 21 | 321 | 0.0 | 0.0 | 0.00 | 0.00 | 0.00 | 99 | 1011.3 |
| 20260906083033 | 21 | 333 | 0.0 | 0.0 | 0.00 | 0.00 | 0.00 | 99 | 1011.4 |
| 20260906082528 | 21 | 331 | 0.0 | 0.0 | 0.00 | 0.00 | 0.00 | 99 | 1011.5 |
| 20260906082025 | 21 | 331 | 0.0 | 0.0 | 0.00 | 0.00 | 0.00 | 99 | 1011.3 |
| 20260906081520 | 21 | 321 | 1.6 | 3.2 | 0.00 | 0.00 | 0.00 | 99 | 1011.6 |
| 20260906081016 | 21 | 327 | 3.2 | 3.2 | 0.00 | 0.00 | 0.00 | 99 | 1011.5 |
| 20260906080512 | 21 | 326 | 1.6 | 1.6 | 0.00 | 0.00 | 0.00 | 99 | 1011.6 |
| 20260906080008 | 21 | 346 | 3.2 | 3.2 | 0.00 | 0.00 | 0.00 | 99 | 1011.5 |
| 20260906075502 | 21 | 337 | 1.6 | 3.2 | 0.00 | 0.00 | 0.00 | 99 | 1011.4 |
| 20260906074956 | 21 | 332 | 0.0 | 0.0 | 0.00 | 0.00 | 0.00 | 99 | 1011.5 |
| 20260906074451 | 21 | 329 | 0.0 | 0.0 | 0.00 | 0.00 | 0.00 | 99 | 1011.5 |
| 20260906073949 | 21 | 329 | 0.0 | 0.0 | 0.00 | 0.00 | 0.00 | 99 | 1011.5 |
| 20260906073444 | 21 | 326 | 0.0 | 0.0 | 0.00 | 0.00 | 0.00 | 99 | 1011.2 |
| 20260906072941 | 21 | 327 | 0.0 | 0.0 | 0.00 | 0.00 | 0.00 | 99 | 1011.4 |
| 20260906072436 | 21 | 334 | 0.0 | 0.0 | 0.00 | 0.00 | 0.00 | 99 | 1011.3 |
| 20260906071932 | 21 | 328 | 0.0 | 0.0 | 0.00 | 0.00 | 0.00 | 99 | 1011.1 |
| 20260906071427 | 21 | 331 | 0.0 | 0.0 | 0.00 | 0.00 | 0.00 | 99 | 1011.0 |
| 20260906070924 | 21 | 340 | 0.0 | 1.6 | 0.00 | 0.00 | 0.00 | 99 | 1011.0 |
| 20260906070419 | 21 | 325 | 0.0 | 0.0 | 0.00 | 0.00 | 0.00 | 99 | 1011.0 |
| 20260906065915 | 21 | 325 | 0.0 | 0.0 | 0.00 | 0.00 | 0.00 | 99 | 1010.9 |
| 20260906065409 | 21 | 329 | 0.0 | 0.0 | 0.00 | 0.00 | 0.00 | 99 | 1010.7 |
| 20260906064904 | 21 | 327 | 0.0 | 0.0 | 0.00 | 0.00 | 0.00 | 99 | 1011.0 |
| 20260906064355 | 21 | 326 | 0.0 | 0.0 | 0.00 | 0.00 | 0.00 | 99 | 1011.0 |
| 20260906063855 | 21 | 325 | 0.0 | 0.0 | 0.00 | 0.00 | 0.00 | 99 | 1011.3 |
| 20260906063350 | 21 | 316 | 0.0 | 0.0 | 0.00 | 0.00 | 0.00 | 99 | 1011.1 |
| 20260906062845 | 21 | 328 | 0.0 | 0.0 | 0.00 | 0.00 | 0.00 | 99 | 1011.6 |
| 20260906062344 | 22 | 323 | 0.0 | 0.0 | 0.00 | 0.00 | 0.00 | 99 | 1011.3 |
| 20260906061840 | 22 | 325 | 0.0 | 0.0 | 0.00 | 0.00 | 0.00 | 99 | 1011.5 |
| 20260906061336 | 22 | 326 | 0.0 | 0.0 | 0.00 | 0.00 | 0.00 | 99 | 1011.6 |
| 20260906060831 | 22 | 332 | 0.0 | 0.0 | 0.00 | 0.00 | 0.00 | 99 | 1011.5 |
| 20260906060329 | 22 | 320 | 1.6 | 3.2 | 0.00 | 0.00 | 0.00 | 99 | 1011.7 |
| 20260906055824 | 22 | 327 | 0.0 | 0.0 | 0.00 | 0.00 | 0.00 | 99 | 1011.6 |
| 20260906055320 | 22 | 330 | 0.0 | 0.0 | 0.00 | 0.00 | 0.00 | 99 | 1011.6 |
| 20260906054815 | 22 | 337 | 1.6 | 1.6 | 0.00 | 0.00 | 0.00 | 99 | 1011.4 |
| 20260906054310 | 22 | 326 | 1.6 | 1.6 | 0.00 | 0.00 | 0.00 | 99 | 1011.5 |
| 20260906053807 | 22 | 336 | 1.6 | 1.6 | 0.00 | 0.00 | 0.00 | 99 | 1011.2 |
| 20260906053302 | 22 | 323 | 0.0 | 0.0 | 0.00 | 0.00 | 0.00 | 99 | 1011.3 |
| 20260906052756 | 22 | 322 | 0.0 | 0.0 | 0.00 | 0.00 | 0.00 | 99 | 1011.3 |
| 20260906052253 | 22 | 322 | 0.0 | 0.0 | 0.00 | 0.00 | 0.00 | 99 | 1011.4 |
| 20260906051750 | 22 | 328 | 0.0 | 0.0 | 0.00 | 0.00 | 0.00 | 99 | 1011.3 |
| 20260906051249 | 22 | 329 | 0.0 | 0.0 | 0.00 | 0.00 | 0.00 | 99 | 1011.5 |
| 20260906050745 | 22 | 335 | 0.0 | 0.0 | 0.00 | 0.00 | 0.00 | 99 | 1011.5 |
| 20260906050240 | 22 | 333 | 0.0 | 0.0 | 0.00 | 0.00 | 0.00 | 99 | 1011.7 |
| 20260906045738 | 22 | 324 | 0.0 | 0.0 | 0.00 | 0.00 | 0.00 | 99 | 1011.2 |
| 20260906045233 | 22 | 324 | 0.0 | 0.0 | 0.00 | 0.00 | 0.00 | 99 | 1011.3 |
| 20260906044728 | 22 | 325 | 0.0 | 0.0 | 0.00 | 0.00 | 0.00 | 99 | 1011.0 |
| 20260906044224 | 22 | 329 | 0.0 | 0.0 | 0.00 | 0.00 | 0.00 | 99 | 1011.1 |
| 20260906043720 | 22 | 329 | 0.0 | 1.6 | 0.00 | 0.00 | 0.00 | 99 | 1011.1 |
| 20260906043216 | 22 | 334 | 0.0 | 0.0 | 0.00 | 0.00 | 0.00 | 99 | 1011.0 |
| 20260906042715 | 22 | 333 | 0.0 | 0.0 | 0.00 | 0.00 | 0.00 | 99 | 1011.0 |
| 20260906042209 | 22 | 326 | 1.6 | 1.6 | 0.00 | 0.00 | 0.00 | 99 | 1011.0 |
| 20260906041704 | 22 | 327 | 0.0 | 0.0 | 0.00 | 0.00 | 0.00 | 99 | 1011.0 |
| 20260906041159 | 22 | 333 | 0.0 | 0.0 | 0.00 | 0.00 | 0.00 | 99 | 1010.9 |
| 20260906040655 | 22 | 324 | 0.0 | 0.0 | 0.00 | 0.00 | 0.00 | 99 | 1010.7 |
| 20260906040150 | 22 | 324 | 0.0 | 0.0 | 0.00 | 0.00 | 0.00 | 99 | 1011.0 |
| 20260906035645 | 22 | 321 | 0.0 | 0.0 | 0.00 | 0.18 | 0.18 | 99 | 1011.0 |
| 20260906035141 | 22 | 321 | 0.0 | 0.0 | 0.00 | 0.18 | 0.18 | 99 | 1011.0 |
| 20260906034635 | 22 | 321 | 0.0 | 0.0 | 0.00 | 0.18 | 0.18 | 99 | 1010.9 |
| 20260906034130 | 22 | 324 | 0.0 | 0.0 | 0.00 | 0.18 | 0.18 | 99 | 1011.2 |
| 20260906033625 | 22 | 323 | 0.0 | 0.0 | 0.00 | 0.18 | 0.18 | 99 | 1011.1 |
| 20260906033120 | 22 | 323 | 0.0 | 0.0 | 0.00 | 0.18 | 0.18 | 99 | 1010.8 |
| 20260906032617 | 22 | 331 | 0.0 | 0.0 | 0.00 | 0.18 | 0.18 | 99 | 1010.7 |
| 20260906032116 | 22 | 332 | 0.0 | 0.0 | 0.00 | 0.18 | 0.18 | 99 | 1010.8 |
| 20260906031612 | 22 | 340 | 0.0 | 0.0 | 0.00 | 0.18 | 0.18 | 99 | 1011.2 |
| 20260906031108 | 22 | 330 | 0.0 | 0.0 | 0.00 | 0.18 | 0.18 | 99 | 1011.4 |
| 20260906030606 | 22 | 335 | 1.6 | 1.6 | 0.00 | 0.18 | 0.18 | 99 | 1011.1 |
| 20260906030101 | 22 | 327 | 0.0 | 0.0 | 0.00 | 0.18 | 0.18 | 99 | 1011.4 |
| 20260906025556 | 23 | 331 | 0.0 | 0.0 | 0.00 | 0.18 | 0.18 | 99 | 1011.5 |
| 20260906025054 | 22 | 324 | 0.0 | 0.0 | 0.00 | 0.18 | 0.18 | 99 | 1011.5 |
| 20260906024550 | 23 | 331 | 0.0 | 1.6 | 0.00 | 0.18 | 0.18 | 99 | 1011.4 |
| 20260906024049 | 22 | 342 | 1.6 | 1.6 | 0.00 | 0.18 | 0.18 | 99 | 1011.6 |
| 20260906023546 | 22 | 340 | 1.6 | 1.6 | 0.00 | 0.18 | 0.18 | 99 | 1011.7 |
| 20260906023040 | 22 | 329 | 1.6 | 1.6 | 0.00 | 0.18 | 0.18 | 99 | 1011.7 |
| 20260906022535 | 22 | 352 | 1.6 | 3.2 | 0.00 | 0.18 | 0.18 | 99 | 1011.4 |
| 20260906022031 | 22 | 332 | 0.0 | 0.0 | 0.00 | 0.18 | 0.18 | 99 | 1011.6 |
| 20260906021526 | 22 | 331 | 0.0 | 0.0 | 0.00 | 0.18 | 0.18 | 99 | 1011.4 |
| 20260906021020 | 23 | 326 | 0.0 | 0.0 | 0.00 | 0.18 | 0.18 | 99 | 1011.3 |
| 20260906020519 | 23 | 322 | 0.0 | 0.0 | 0.00 | 0.18 | 0.18 | 99 | 1011.4 |
| 20260906020019 | 23 | 330 | 0.0 | 0.0 | 0.00 | 0.18 | 0.18 | 99 | 1011.4 |
| 20260906015518 | 23 | 321 | 0.0 | 0.0 | 0.00 | 0.18 | 0.18 | 99 | 1011.2 |
| 20260906015018 | 23 | 328 | 0.0 | 0.0 | 0.00 | 0.18 | 0.18 | 99 | 1011.4 |
| 20260906014513 | 23 | 329 | 0.0 | 0.0 | 0.00 | 0.18 | 0.18 | 99 | 1011.0 |
| 20260906014009 | 23 | 337 | 0.0 | 0.0 | 0.00 | 0.18 | 0.18 | 99 | 1011.0 |
| 20260906013504 | 23 | 333 | 0.0 | 0.0 | 0.00 | 0.18 | 0.18 | 99 | 1011.1 |
| 20260906013000 | 23 | 334 | 0.0 | 0.0 | 0.00 | 0.18 | 0.18 | 99 | 1011.3 |
| 20260906012455 | 23 | 340 | 0.0 | 0.0 | 0.00 | 0.18 | 0.18 | 99 | 1011.1 |
| 20260906011954 | 23 | 327 | 0.0 | 0.0 | 0.00 | 0.18 | 0.18 | 99 | 1011.0 |
| 20260906011449 | 23 | 327 | 0.0 | 0.0 | 0.00 | 0.18 | 0.18 | 99 | 1010.7 |
| 20260906010944 | 23 | 327 | 0.0 | 0.0 | 0.00 | 0.18 | 0.18 | 99 | 1010.6 |
| 20260906010440 | 23 | 333 | 0.0 | 0.0 | 0.00 | 0.18 | 0.18 | 99 | 1010.7 |
| 20260906005936 | 23 | 334 | 1.6 | 1.6 | 0.00 | 0.18 | 0.18 | 99 | 1010.5 |
| 20260906005436 | 23 | 340 | 1.6 | 1.6 | 0.00 | 0.18 | 0.18 | 99 | 1010.6 |
| 20260906004934 | 23 | 334 | 0.0 | 1.6 | 0.00 | 0.18 | 0.18 | 99 | 1010.8 |
| 20260906004429 | 23 | 351 | 3.2 | 3.2 | 0.00 | 0.18 | 0.18 | 99 | 1010.6 |
| 20260906003925 | 23 | 349 | 3.2 | 3.2 | 0.00 | 0.18 | 0.18 | 99 | 1010.3 |
| 20260906003419 | 23 | 336 | 1.6 | 3.2 | 0.00 | 0.18 | 0.18 | 99 | 1010.6 |
| 20260906002915 | 23 | 353 | 1.6 | 1.6 | 0.00 | 0.18 | 0.18 | 99 | 1010.6 |
| 20260906002415 | 24 | 333 | 0.0 | 0.0 | 0.00 | 0.18 | 0.18 | 99 | 1010.4 |
| 20260906001915 | 24 | 331 | 0.0 | 0.0 | 0.00 | 0.18 | 0.18 | 99 | 1010.7 |
| 20260906001411 | 24 | 330 | 0.0 | 0.0 | 0.00 | 0.18 | 0.18 | 99 | 1010.5 |
| 20260906000910 | 25 | 333 | 0.0 | 0.0 | 0.00 | 0.18 | 0.18 | 99 | 1010.6 |
| 20260906000406 | 25 | 336 | 0.0 | 0.0 | 0.00 | 0.18 | 0.18 | 99 | 1010.6 |
| 20260905235855 | 25 | 342 | 1.6 | 1.6 | 0.00 | 0.18 | 0.18 | 99 | 1010.6 |
| 20260905235349 | 25 | 326 | 0.0 | 0.0 | 0.00 | 0.18 | 0.18 | 99 | 1010.6 |
| 20260905234845 | 25 | 335 | 0.0 | 1.6 | 0.00 | 0.18 | 0.18 | 99 | 1010.6 |
| 20260905234340 | 25 | 331 | 0.0 | 0.0 | 0.00 | 0.18 | 0.18 | 99 | 1010.9 |
| 20260905233835 | 25 | 340 | 0.0 | 0.0 | 0.00 | 0.18 | 0.18 | 98 | 1011.0 |
| 20260905233330 | 26 | 330 | 0.0 | 0.0 | 0.00 | 0.18 | 0.18 | 97 | 1010.9 |
| 20260905232829 | 26 | 334 | 0.0 | 0.0 | 0.00 | 0.18 | 0.18 | 97 | 1011.0 |
| 20260905232325 | 26 | 333 | 0.0 | 0.0 | 0.00 | 0.18 | 0.18 | 96 | 1010.8 |
| 20260905231821 | 26 | 327 | 0.0 | 0.0 | 0.00 | 0.18 | 0.18 | 95 | 1010.7 |
| 20260905231316 | 26 | 317 | 0.0 | 0.0 | 0.00 | 0.18 | 0.18 | 95 | 1010.8 |
| 20260905230812 | 26 | 322 | 0.0 | 0.0 | 0.00 | 0.18 | 0.18 | 95 | 1010.6 |
| 20260905230310 | 26 | 336 | 0.0 | 0.0 | 0.00 | 0.18 | 0.18 | 95 | 1010.7 |
| 20260905225809 | 26 | 314 | 0.0 | 0.0 | 0.00 | 0.18 | 0.18 | 94 | 1010.8 |
| 20260905225306 | 26 | 316 | 0.0 | 0.0 | 0.00 | 0.18 | 0.18 | 93 | 1010.8 |
| 20260905224804 | 26 | 316 | 0.0 | 0.0 | 0.00 | 0.18 | 0.18 | 93 | 1010.9 |
| 20260905224300 | 27 | 317 | 0.0 | 0.0 | 0.00 | 0.18 | 0.18 | 93 | 1010.8 |
| 20260905223755 | 27 | 321 | 0.0 | 0.0 | 0.00 | 0.18 | 0.18 | 91 | 1010.7 |
| 20260905223252 | 27 | 327 | 0.0 | 0.0 | 0.00 | 0.18 | 0.18 | 91 | 1010.9 |
| 20260905222747 | 27 | 339 | 0.0 | 0.0 | 0.00 | 0.18 | 0.18 | 91 | 1010.7 |
| 20260905222246 | 27 | 342 | 1.6 | 1.6 | 0.00 | 0.18 | 0.18 | 91 | 1010.7 |
| 20260905221742 | 27 | 337 | 0.0 | 0.0 | 0.00 | 0.18 | 0.18 | 92 | 1010.5 |
| 20260905221239 | 27 | 341 | 0.0 | 1.6 | 0.00 | 0.18 | 0.18 | 91 | 1010.8 |
| 20260905220734 | 27 | 340 | 1.6 | 1.6 | 0.00 | 0.18 | 0.18 | 89 | 1010.5 |
| 20260905220231 | 27 | 327 | 0.0 | 0.0 | 0.00 | 0.18 | 0.18 | 89 | 1010.8 |
| 20260905215730 | 27 | 316 | 0.0 | 0.0 | 0.00 | 0.18 | 0.18 | 88 | 1010.5 |
| 20260905215226 | 28 | 320 | 0.0 | 0.0 | 0.00 | 0.18 | 0.18 | 84 | 1010.6 |
| 20260905214721 | 28 | 319 | 0.0 | 0.0 | 0.00 | 0.18 | 0.18 | 83 | 1010.6 |
| 20260905214217 | 28 | 324 | 0.0 | 0.0 | 0.00 | 0.18 | 0.18 | 82 | 1010.6 |
| 20260905213712 | 30 | 336 | 0.0 | 0.0 | 0.00 | 0.18 | 0.18 | 78 | 1010.6 |
| 20260905213208 | 30 | 308 | 0.0 | 1.6 | 0.00 | 0.18 | 0.18 | 74 | 1010.5 |
| 20260905212703 | 30 | 331 | 3.2 | 3.2 | 0.00 | 0.18 | 0.18 | 73 | 1010.5 |
| 20260905212202 | 30 | 279 | 0.0 | 1.6 | 0.00 | 0.18 | 0.18 | 74 | 1010.4 |
| 20260905211657 | 30 | 337 | 0.0 | 0.0 | 0.00 | 0.18 | 0.18 | 75 | 1010.4 |
| 20260905211152 | 30 | 298 | 0.0 | 1.6 | 0.00 | 0.18 | 0.18 | 73 | 1010.5 |
| 20260905210649 | 30 | 314 | 0.0 | 1.6 | 0.00 | 0.18 | 0.18 | 74 | 1010.6 |
| 20260905210148 | 30 | 274 | 3.2 | 4.8 | 0.00 | 0.18 | 0.18 | 74 | 1010.5 |
| 20260905205648 | 30 | 224 | 4.8 | 4.8 | 0.00 | 0.18 | 0.18 | 78 | 1010.4 |
| 20260905205147 | 30 | 234 | 4.8 | 4.8 | 0.00 | 0.18 | 0.18 | 76 | 1010.4 |
| 20260905204647 | 30 | 29 | 1.6 | 3.2 | 0.00 | 0.18 | 0.18 | 77 | 1010.4 |
| 20260905204142 | 30 | 287 | 1.6 | 1.6 | 0.00 | 0.18 | 0.18 | 77 | 1010.2 |
| 20260905203637 | 30 | 337 | 0.0 | 0.0 | 0.00 | 0.18 | 0.18 | 81 | 1010.5 |
| 20260905203132 | 29 | 336 | 0.0 | 0.0 | 0.00 | 0.18 | 0.18 | 80 | 1010.6 |
| 20260905202628 | 30 | 336 | 0.0 | 0.0 | 0.00 | 0.18 | 0.18 | 72 | 1010.6 |
| 20260905202123 | 30 | 336 | 0.0 | 0.0 | 0.00 | 0.18 | 0.18 | 75 | 1010.5 |
| 20260905201619 | 28 | 336 | 0.0 | 0.0 | 0.00 | 0.18 | 0.18 | 80 | 1010.8 |
| 20260905201118 | 27 | 342 | 0.0 | 0.0 | 0.00 | 0.18 | 0.18 | 83 | 1010.6 |
| 20260905200614 | 27 | 68 | 3.2 | 3.2 | 0.18 | 0.18 | 0.18 | 81 | 1011.1 |
| 20260905200109 | 27 | 341 | 0.0 | 0.0 | 0.18 | 0.18 | 0.18 | 82 | 1011.1 |
| 20260905195601 | 28 | 342 | 0.0 | 0.0 | 0.00 | 0.15 | 0.15 | 75 | 1011.2 |
| 20260905195057 | 28 | 320 | 1.6 | 3.2 | 0.00 | 0.15 | 0.15 | 72 | 1011.2 |
| 20260905194556 | 30 | 36 | 0.0 | 1.6 | 0.00 | 0.15 | 0.15 | 71 | 1010.9 |
| 20260905194050 | 29 | 283 | 1.6 | 1.6 | 0.00 | 0.15 | 0.15 | 71 | 1011.2 |
| 20260905193545 | 29 | 308 | 1.6 | 1.6 | 0.00 | 0.15 | 0.15 | 69 | 1010.9 |
| 20260905193041 | 29 | 305 | 0.0 | 0.0 | 0.00 | 0.15 | 0.15 | 71 | 1011.0 |
| 20260905192536 | 29 | 344 | 1.6 | 3.2 | 0.00 | 0.15 | 0.15 | 70 | 1011.1 |
| 20260905192033 | 30 | 315 | 0.0 | 0.0 | 0.00 | 0.15 | 0.15 | 71 | 1011.0 |
| 20260905191531 | 30 | 342 | 0.0 | 1.6 | 0.00 | 0.15 | 0.15 | 67 | 1011.3 |
| 20260905191030 | 30 | 332 | 0.0 | 1.6 | 0.00 | 0.15 | 0.15 | 64 | 1011.3 |
| 20260905190528 | 30 | 302 | 0.0 | 0.0 | 0.00 | 0.15 | 0.15 | 62 | 1011.4 |
| 20260905190028 | 30 | 303 | 0.0 | 0.0 | 0.00 | 0.15 | 0.15 | 64 | 1011.5 |
| 20260905185527 | 30 | 6 | 1.6 | 1.6 | 0.00 | 0.15 | 0.15 | 66 | 1011.5 |
| 20260905185026 | 30 | 351 | 0.0 | 0.0 | 0.00 | 0.15 | 0.15 | 70 | 1011.5 |
| 20260905184521 | 30 | 358 | 1.6 | 1.6 | 0.00 | 0.15 | 0.15 | 69 | 1011.7 |
| 20260905184019 | 30 | 318 | 0.0 | 0.0 | 0.00 | 0.15 | 0.15 | 73 | 1011.7 |
| 20260905183514 | 30 | 317 | 0.0 | 1.6 | 0.00 | 0.15 | 0.15 | 69 | 1011.8 |
| 20260905183010 | 30 | 343 | 1.6 | 1.6 | 0.00 | 0.15 | 0.15 | 69 | 1011.7 |
| 20260905182509 | 29 | 318 | 1.6 | 3.2 | 0.00 | 0.15 | 0.15 | 73 | 1012.0 |
| 20260905182003 | 28 | 315 | 0.0 | 0.0 | 0.00 | 0.15 | 0.15 | 73 | 1012.1 |
| 20260905181459 | 28 | 311 | 1.6 | 1.6 | 0.00 | 0.15 | 0.15 | 76 | 1012.0 |
| 20260905180957 | 28 | 336 | 1.6 | 3.2 | 0.00 | 0.15 | 0.15 | 75 | 1011.9 |
| 20260905180452 | 28 | 288 | 8.0 | 8.0 | 0.00 | 0.15 | 0.15 | 72 | 1011.9 |
| 20260905175947 | 28 | 321 | 0.0 | 0.0 | 0.00 | 0.15 | 0.15 | 74 | 1011.9 |
| 20260905175447 | 28 | 327 | 0.0 | 1.6 | 0.00 | 0.15 | 0.15 | 77 | 1012.0 |
| 20260905174943 | 28 | 269 | 4.8 | 8.0 | 0.00 | 0.15 | 0.15 | 75 | 1012.3 |
| 20260905174437 | 28 | 315 | 1.6 | 1.6 | 0.00 | 0.15 | 0.15 | 75 | 1011.9 |
| 20260905173933 | 28 | 326 | 0.0 | 1.6 | 0.00 | 0.15 | 0.15 | 77 | 1011.9 |
| 20260905173430 | 28 | 341 | 0.0 | 1.6 | 0.00 | 0.15 | 0.15 | 81 | 1012.3 |
| 20260905172925 | 28 | 291 | 1.6 | 1.6 | 0.00 | 0.15 | 0.15 | 80 | 1012.5 |
| 20260905172422 | 27 | 317 | 0.0 | 1.6 | 0.00 | 0.15 | 0.15 | 82 | 1012.3 |
| 20260905171919 | 27 | 19 | 4.8 | 4.8 | 0.00 | 0.15 | 0.15 | 83 | 1012.2 |
| 20260905171415 | 27 | 338 | 1.6 | 1.6 | 0.00 | 0.15 | 0.15 | 83 | 1012.3 |
| 20260905170911 | 27 | 322 | 1.6 | 3.2 | 0.00 | 0.15 | 0.15 | 82 | 1012.4 |
| 20260905170407 | 27 | 334 | 0.0 | 0.0 | 0.00 | 0.15 | 0.15 | 83 | 1012.7 |
| 20260905165906 | 27 | 333 | 1.6 | 1.6 | 0.00 | 0.15 | 0.15 | 87 | 1012.5 |
| 20260905165402 | 27 | 336 | 3.2 | 3.2 | 0.00 | 0.15 | 0.15 | 85 | 1012.3 |
| 20260905164856 | 27 | 321 | 0.0 | 0.0 | 0.00 | 0.15 | 0.15 | 84 | 1012.5 |
| 20260905164351 | 27 | 331 | 3.2 | 4.8 | 0.00 | 0.15 | 0.15 | 87 | 1012.7 |
| 20260905163846 | 26 | 303 | 1.6 | 3.2 | 0.00 | 0.15 | 0.15 | 87 | 1012.8 |
| 20260905163337 | 26 | 273 | 6.4 | 9.7 | 0.00 | 0.15 | 0.15 | 87 | 1012.7 |
| 20260905162833 | 26 | 347 | 1.6 | 1.6 | 0.00 | 0.15 | 0.15 | 89 | 1012.8 |
| 20260905162332 | 26 | 345 | 1.6 | 1.6 | 0.00 | 0.15 | 0.15 | 89 | 1012.6 |
| 20260905161827 | 26 | 312 | 1.6 | 1.6 | 0.00 | 0.15 | 0.15 | 91 | 1012.8 |
| 20260905161327 | 26 | 290 | 3.2 | 3.2 | 0.00 | 0.15 | 0.15 | 89 | 1012.7 |
| 20260905160825 | 26 | 327 | 0.0 | 0.0 | 0.00 | 0.15 | 0.15 | 94 | 1012.8 |
| 20260905160320 | 25 | 310 | 1.6 | 1.6 | 0.00 | 0.15 | 0.15 | 90 | 1012.5 |
| 20260905155814 | 25 | 308 | 1.6 | 1.6 | 0.00 | 0.15 | 0.15 | 95 | 1012.3 |
| 20260905155313 | 25 | 286 | 1.6 | 3.2 | 0.00 | 0.15 | 0.15 | 95 | 1012.3 |
| 20260905154807 | 25 | 324 | 0.0 | 0.0 | 0.00 | 0.15 | 0.15 | 96 | 1012.3 |
| 20260905154303 | 25 | 333 | 0.0 | 0.0 | 0.00 | 0.15 | 0.15 | 96 | 1012.4 |
| 20260905153758 | 25 | 334 | 0.0 | 0.0 | 0.00 | 0.15 | 0.15 | 95 | 1012.0 |
| 20260905153254 | 25 | 315 | 0.0 | 1.6 | 0.00 | 0.15 | 0.15 | 92 | 1012.5 |
| 20260905152748 | 24 | 320 | 0.0 | 0.0 | 0.00 | 0.15 | 0.15 | 95 | 1012.5 |
| 20260905152243 | 24 | 339 | 1.6 | 1.6 | 0.00 | 0.15 | 0.15 | 96 | 1012.9 |
| 20260905151742 | 23 | 296 | 3.2 | 3.2 | 0.00 | 0.15 | 0.15 | 99 | 1012.6 |
| 20260905151239 | 23 | 326 | 0.0 | 0.0 | 0.00 | 0.15 | 0.15 | 99 | 1012.1 |
| 20260905150738 | 23 | 326 | 0.0 | 0.0 | 0.00 | 0.15 | 0.15 | 99 | 1012.2 |
| 20260905150238 | 23 | 333 | 0.0 | 0.0 | 0.00 | 0.15 | 0.15 | 99 | 1012.9 |
| 20260905145735 | 23 | 317 | 0.0 | 0.0 | 0.00 | 0.15 | 0.15 | 99 | 1013.3 |
| 20260905145231 | 23 | 327 | 0.0 | 0.0 | 0.00 | 0.15 | 0.15 | 99 | 1013.1 |
| 20260905144729 | 23 | 339 | 0.0 | 1.6 | 0.00 | 0.15 | 0.15 | 99 | 1013.0 |
| 20260905144225 | 23 | 329 | 0.0 | 0.0 | 0.00 | 0.15 | 0.15 | 99 | 1012.8 |
| 20260905143723 | 23 | 329 | 0.0 | 0.0 | 0.00 | 0.15 | 0.15 | 99 | 1012.7 |
| 20260905143218 | 23 | 308 | 0.0 | 0.0 | 0.00 | 0.15 | 0.15 | 99 | 1012.7 |
| 20260905142716 | 22 | 317 | 0.0 | 0.0 | 0.00 | 0.15 | 0.15 | 99 | 1013.4 |
| 20260905142211 | 23 | 301 | 0.0 | 0.0 | 0.00 | 0.15 | 0.15 | 99 | 1013.7 |
| 20260905141706 | 23 | 315 | 0.0 | 0.0 | 0.00 | 0.15 | 0.15 | 99 | 1012.9 |
| 20260905141202 | 23 | 315 | 0.0 | 0.0 | 0.00 | 0.15 | 0.15 | 99 | 1013.2 |
| 20260905140657 | 22 | 330 | 0.0 | 0.0 | 0.00 | 0.15 | 0.15 | 99 | 1013.2 |
| 20260905140151 | 22 | 330 | 0.0 | 0.0 | 0.00 | 0.15 | 0.15 | 99 | 1013.3 |
| 20260905135646 | 22 | 334 | 0.0 | 0.0 | 0.00 | 0.15 | 0.15 | 99 | 1013.4 |
| 20260905135142 | 22 | 316 | 0.0 | 0.0 | 0.00 | 0.15 | 0.15 | 99 | 1013.7 |
| 20260905134636 | 22 | 327 | 0.0 | 0.0 | 0.00 | 0.15 | 0.15 | 99 | 1013.7 |
| 20260905134134 | 22 | 336 | 0.0 | 0.0 | 0.00 | 0.15 | 0.15 | 99 | 1013.6 |
| 20260905133625 | 22 | 339 | 0.0 | 0.0 | 0.00 | 0.15 | 0.15 | 99 | 1013.6 |
| 20260905133125 | 22 | 341 | 0.0 | 0.0 | 0.00 | 0.15 | 0.15 | 99 | 1014.0 |
| 20260905132624 | 22 | 334 | 0.0 | 0.0 | 0.00 | 0.15 | 0.15 | 99 | 1014.4 |
| 20260905132119 | 22 | 332 | 0.0 | 0.0 | 0.00 | 0.15 | 0.15 | 99 | 1014.0 |
| 20260905131614 | 22 | 340 | 0.0 | 0.0 | 0.00 | 0.15 | 0.15 | 99 | 1014.1 |
| 20260905131110 | 22 | 331 | 0.0 | 0.0 | 0.00 | 0.15 | 0.15 | 99 | 1014.0 |
| 20260905130609 | 22 | 327 | 0.0 | 0.0 | 0.00 | 0.15 | 0.15 | 99 | 1014.1 |
| 20260905130104 | 22 | 335 | 0.0 | 1.6 | 0.00 | 0.15 | 0.15 | 99 | 1014.1 |
| 20260905125603 | 22 | 304 | 3.2 | 4.8 | 0.00 | 0.15 | 0.15 | 99 | 1014.2 |
| 20260905125059 | 22 | 316 | 1.6 | 1.6 | 0.13 | 0.15 | 0.15 | 99 | 1014.2 |
| 20260905124555 | 22 | 357 | 1.6 | 1.6 | 0.13 | 0.15 | 0.15 | 99 | 1014.1 |
| 20260905124051 | 22 | 328 | 1.6 | 1.6 | 0.00 | 0.13 | 0.13 | 99 | 1013.9 |
| 20260905123546 | 22 | 359 | 1.6 | 3.2 | 0.00 | 0.13 | 0.13 | 99 | 1013.9 |
| 20260905123043 | 22 | 323 | 0.0 | 0.0 | 0.00 | 0.13 | 0.13 | 99 | 1014.0 |
| 20260905122543 | 22 | 205 | 4.8 | 9.7 | 0.00 | 0.13 | 0.13 | 99 | 1013.6 |
| 20260905122037 | 22 | 347 | 0.0 | 0.0 | 0.00 | 0.13 | 0.13 | 99 | 1013.7 |
| 20260905121532 | 22 | 346 | 4.8 | 8.0 | 0.00 | 0.13 | 0.13 | 99 | 1014.0 |